Weather History for Muskegon, MI

Change the Weather History Date:

Thursday, August 1, 2013

  Actual Average Record
Temperature  
Mean Temperature 70 °F 71 °F  
Max Temperature 77 °F 80 °F 92 °F (1975)
Min Temperature 63 °F 62 °F 43 °F (1947)
Degree Days  
Heating Degree Days 0 0  
Month to date heating degree days 0 0  
Since 1 June heating degree days 69 77  
Since 1 July heating degree days 17 11  
Cooling Degree Days 5 6  
Month to date cooling degree days 5 6  
Year to date cooling degree days 383 342  
Since 1 June cooling degree days 323 313  
Growing Degree Days 20 (Base 50)    
Moisture  
Dew Point 60 °F    
Average Humidity 70    
Maximum Humidity 93    
Minimum Humidity 46    
Precipitation  
Precipitation 0.00 in 0.10 in 1.58 in (2002)
Month to date precipitation 0.00 0.10  
Year to date precipitation 29.31 17.29  
Snow  
Snow 0.00 in 0.00 in - ()
Month to date snowfall 0.0 0.0  
Since 1 June snowfall 0.0 0.0  
Since 1 July snowfall 0.0 0.0  
Snow Depth 0.00 in    
Sea Level Pressure  
Sea Level Pressure 29.94 in    
Wind  
Wind Speed 6 mph (West)    
Max Wind Speed 16 mph    
Max Gust Speed 21 mph    
Visibility 8 miles    
Events      
T = Trace of Precipitation, MM = Missing Value Source: NWS Daily Summary

Daily Weather History Graph

Daily Weather History Graph

Search for Another Location

Airport:

Trip Planner

Search our weather history database for the weather conditions in past years. The results will help you decide how hot, cold, wet, or windy it might be!

Date:

Astronomy

Aug. 01, 2013 Rise Set
Actual Time 6:35 AM EDT 9:06 PM EDT
Civil Twilight 6:03 AM EDT 9:38 PM EDT
Nautical Twilight 5:22 AM EDT 10:18 PM EDT
Astronomical Twilight 4:37 AM EDT 11:03 PM EDT
Moon 2:10 AM EDT (8/1) 5:15 PM EDT (8/1)
Length of Visible Light 15h 35m
Length of Day
14h 30m
Waning Crescent, 23% of the Moon is Illuminated
Aug 1
Waning Crescent
Aug 6
New
Aug 14
First Quarter
Aug 20
Full
Aug 28
Last Quarter

Hourly Weather History & Observations

Time (EDT) Temp. Dew Point Humidity Pressure Visibility Wind Dir Wind Speed Gust Speed Precip Events Conditions
12:10 AM 62.6 °F 60.8 °F 94% 29.94 in 2.5 mi SW 5.8 mph - N/A   Clear
12:15 AM 62.6 °F 60.8 °F 94% 29.94 in 1.8 mi SW 5.8 mph - N/A   Partly Cloudy
12:27 AM 62.6 °F 60.8 °F 94% 29.94 in 3.0 mi WSW 8.1 mph - N/A   Scattered Clouds
12:55 AM 63.0 °F 60.1 °F 90% 29.94 in 5.0 mi WSW 3.5 mph - N/A   Clear
1:11 AM 64.4 °F 62.6 °F 94% 29.95 in 5.0 mi West 5.8 mph - N/A   Scattered Clouds
1:21 AM 64.4 °F 62.6 °F 94% 29.95 in 5.0 mi West 5.8 mph - N/A   Mostly Cloudy
1:38 AM 64.4 °F 60.8 °F 88% 29.94 in 4.0 mi WSW 3.5 mph - N/A   Scattered Clouds
1:55 AM 64.0 °F 62.1 °F 93% 29.93 in 4.0 mi WSW 3.5 mph - N/A   Mostly Cloudy
2:55 AM 64.9 °F 63.0 °F 93% 29.93 in 4.0 mi West 6.9 mph - N/A   Mostly Cloudy
3:14 AM 64.4 °F 62.6 °F 94% 29.93 in 6.0 mi Variable 4.6 mph - N/A   Partly Cloudy
3:55 AM 64.0 °F 61.0 °F 90% 29.92 in 10.0 mi West 5.8 mph - N/A   Clear
4:55 AM 64.0 °F 60.1 °F 87% 29.91 in 10.0 mi West 4.6 mph - N/A   Clear
5:55 AM 64.9 °F 61.0 °F 87% 29.92 in 10.0 mi West 4.6 mph - N/A   Clear
6:55 AM 64.0 °F 61.0 °F 90% 29.92 in 10.0 mi WNW 3.5 mph - N/A   Partly Cloudy
7:55 AM 66.0 °F 62.1 °F 87% 29.93 in 10.0 mi WNW 4.6 mph - N/A   Partly Cloudy
8:55 AM 70.0 °F 62.1 °F 76% 29.93 in 10.0 mi Calm Calm - N/A   Partly Cloudy
9:55 AM 71.1 °F 64.0 °F 78% 29.94 in 10.0 mi Variable 4.6 mph - N/A   Scattered Clouds
10:55 AM 73.9 °F 61.0 °F 64% 29.93 in 10.0 mi West 4.6 mph - N/A   Scattered Clouds
11:55 AM 75.0 °F 61.0 °F 62% 29.94 in 10.0 mi WSW 6.9 mph - N/A   Partly Cloudy
12:55 PM 75.9 °F 57.9 °F 54% 29.95 in 10.0 mi West 10.4 mph - N/A   Scattered Clouds
1:55 PM 73.9 °F 57.9 °F 57% 29.95 in 10.0 mi West 15.0 mph 20.7 mph N/A   Scattered Clouds
2:55 PM 75.9 °F 53.1 °F 45% 29.95 in 10.0 mi WNW 12.7 mph 19.6 mph N/A   Scattered Clouds
3:55 PM 75.0 °F 55.0 °F 50% 29.95 in 10.0 mi West 12.7 mph 19.6 mph N/A   Scattered Clouds
4:55 PM 75.0 °F 55.9 °F 51% 29.96 in 10.0 mi WNW 8.1 mph - N/A   Scattered Clouds
5:55 PM 73.9 °F 54.0 °F 50% 29.95 in 10.0 mi WNW 8.1 mph - N/A   Partly Cloudy
6:55 PM 73.0 °F 55.0 °F 53% 29.94 in 10.0 mi West 5.8 mph - N/A   Partly Cloudy
7:55 PM 71.1 °F 55.9 °F 59% 29.93 in 10.0 mi SW 8.1 mph - N/A   Partly Cloudy
8:55 PM 66.9 °F 57.9 °F 73% 29.93 in 10.0 mi WSW 4.6 mph - N/A   Clear
9:55 PM 64.0 °F 57.9 °F 80% 29.93 in 10.0 mi SW 4.6 mph - N/A   Clear
10:55 PM 64.0 °F 59.0 °F 84% 29.94 in 10.0 mi SW 4.6 mph - N/A   Clear
11:55 PM 64.0 °F 59.0 °F 84% 29.94 in 10.0 mi SSW 4.6 mph - N/A   Clear